SL-14 DEB, 45295

Orbit data source: Space-Track

SL-14 DEB, 45295 is space debris in LEO originally from a launch on Thu, 15 Aug 1991 UTC launched from the Plesetsk Missile And Space Complex (PKMTR). Debris objects in space refer to the collection of defunct objects orbiting the Earth. Examples of debris include non-operational satellites, rocket bodies, and fragments generated from explosions, collisions, or faulty payload assembly.

Loading next visibility...
Identifier
45295, 1991-056AH
Orbit
LEO
Country
Flag of CISCIS
Related business
Manufacturer
Unknown
Mission
Spacecraft
Bus & Motor
Unknown
Mass
Unknown
Launch date (UTC)
1991-08-15 (34 years ago)
Launch vehicle
Unknown
Launch site
Plesetsk Missile And Space Complex (PKMTR)
Object type
Payload
Rocket body
Debris
Shape & HBR
Unknown shape, 0.1 m
Radar Cross Section
Small (<0.1 m²)

Expand to show TLE details & history
Last TLE update: 5 days ago

TLE from 5 days ago
0 SL-14 DEB
1 45295U 91056AH  25336.73099971  .00002353  00000-0  42427-2 0  9994
2 45295  82.5710 230.1887 0089841   6.7849 353.4478 13.39385971281445
Epoch: 2025-12-02T17:32Z
TLE epoch observation values (Epoch: 2025-12-02T17:32:38.374Z)
Latitude
-0.00011°
Longitude
-104.78315°
Altitude
1,047.554 km
Speed
7.361 km/s
True Right ascension
15h 20m 45s
True Declination
0° 00' 00"
Sunlit
Object was in daylight at epoch
Visualization orbit readout
Latitude
Unknown
Longitude
Unknown
Altitude
Unknown
Speed
Unknown
Apparent Right ascension
Unknown
Apparent Declination
Unknown
Sunlit
N/A
Visualization observer readout
Local Sidereal Time
00:11:13
Azimuth
Unknown
Elevation
Unknown
Doppler factor
Unknown
Orbital elements
Apogee altitude
1,176.043 km
Perigee altitude
1,041.517 km
Semi-major axis
7,486.917 km
Eccentricity
0.00898
Inclination
82.571°
RAAN
230.1887°
Arg. of periapsis
6.7849°
True anomaly
353.329°
Mean anomaly
353.4478°
Eccentric anomaly
353.38853°
Mean motion
3.35034 °/min
Orbital period
107.45 mins
BSTAR
0.0042427
Loading maneuver chart data...
Computing Atmospheric mass density...
Loading historical data...
Loading historical data...
Loading historical data...
Loading historical data...
Loading historical data...
Loading historical data...
Loading historical data...

Documentation

Showing up to 5 results
|